Skip Page Navigation
NASA JPL Caltech
NASA Logo - Jet Propulsion Laboratory + View the NASA Portal
+ Center for Near-Earth Object Studies
JPL Home Earth Solar System Stars & Galaxies Technology
JPL Solar System Dynamics
BODIES ORBITS EPHEMERIDES TOOLS PHYSICAL DATA DISCOVERY FAQ SITE MAP
JPL Small-Body Database Browser
Search: [ help ]  
392775 (2012 TX92)
Classification: Main-belt Asteroid          SPK-ID: 2392775
Ephemeris | Orbit Diagram | Orbital Elements | Mission Design | Physical Parameters | Discovery Circumstances | Close-Approach Data ]

[ show orbit diagram ]
Orbital Elements at Epoch 2459000.5 (2020-May-31.0) TDB
Reference: JPL 13 (heliocentric ecliptic J2000)
 Element Value Uncertainty (1-sigma)   Units 
e .2196481325401102 5.1122e-08  
a 2.363800073603038 1.9649e-08 au
q 1.844595801737956 1.2065e-07 au
i 6.14205760030951 6.3836e-06 deg
node 52.72559971123752 6.2762e-05 deg
peri 355.3232467016825 6.6116e-05 deg
M 15.50188000122635 2.1306e-05 deg
tp 2458943.339448597627
(2020-Apr-03.83944860)
7.8152e-05 TDB
period 1327.43889794183
3.63
1.6552e-05
4.532e-08
d
yr
n .2711989233991662 3.3816e-09 deg/d
Q 2.883004345468121 2.3965e-08 au
  Orbit Determination Parameters
   # obs. used (total)      159  
   data-arc span      6519 days (17.85 yr)  
   first obs. used      2001-10-16  
   last obs. used      2019-08-22  
   planetary ephem.      DE431  
   SB-pert. ephem.      SB431-N16  
   condition code      0  
   norm. resid. RMS      .63918  
   source      ORB  
   producer      Otto Matic  
   solution date      2019-Sep-24 07:09:12  

Additional Information
 Earth MOID = .854795 au 
 Jupiter MOID = 2.50795 au 
 T_jup = 3.509 
[ show covariance matrix ]

Ephemeris | Orbit Diagram | Orbital Elements | Mission Design | Physical Parameters | Discovery Circumstances | Close-Approach Data ]

Physical Parameter Table
Parameter Symbol Value Units Sigma Reference Notes
absolute magnitude H 17.4   n/a MPO446664  
diameter diameter 2.050 km 0.699 urn:nasa:pds:neowise_diameters_albedos::2.0[mainbelt] (http://adsabs.harvard.edu/abs/2011ApJ...741...68M)  
geometric albedo albedo 0.088   0.068 urn:nasa:pds:neowise_diameters_albedos::2.0[mainbelt] (http://adsabs.harvard.edu/abs/2011ApJ...741...68M)  

392775 (2012 TX92)          Discovered 2005-Dec-02 by Spacewatch at Kitt Peak
Reference: Last Updated: 2014-04-17

[ show close-approach data ]
Alternate Designations
 2012 TX92 = 2010 JG127 
Ephemeris | Orbit Diagram | Orbital Elements | Mission Design | Physical Parameters | Discovery Circumstances | Close-Approach Data ]
ABOUT SSD CREDITS/AWARDS PRIVACY/COPYRIGHT GLOSSARY LINKS
FirstGov 2020-Aug-13 21:02 UT
(server date/time)  
NASA Home Page
Site Manager:   Ryan S. Park
Webmaster  Alan B. Chamberlin